[[{"header":{"parameterUnit":"m.s-1","parameterCategory":1,"la1":30.2991,"la2":30.254,"lo1":-89.0895,"lo2":-89.0444,"dy":0.0017,"dx":0.0017,"nx":28,"ny":28,"refTime":"2024-03-19T21:00:00:Z","depth":0,"parameterNumber":2,"parameterNumberName":"U-component_of_WINDS"},"data":[0,0,0,0,0,0,0,0,0,0,0,0,0,0,0,0,0,0,0,0,0,0,0,0,0,0,0,0,0,0,0,0,0,0,0,0,0,0,0,0,0,0,0,0,0,0,0,0,0,0,0,0,0,0,0,0,0,0,3.2888,3.2889,0,3.2985,3.2986,3.2987,3.2975,3.2973,3.2972,3.297,3.3067,3.3071,3.3075,0,0,0,0,0,0,0,0,0,0,0,0,0,3.2688,3.2692,3.2888,3.2889,3.289,3.2985,3.2986,3.2987,3.2975,3.2973,3.2971,3.2969,3.3066,3.3071,3.3075,0,0,0,0,0,0,0,0,0,0,0,0,0,3.2779,3.2693,3.2888,3.2896,3.2897,3.2985,3.2986,3.2988,3.2975,3.2973,3.2971,3.2968,3.3064,3.307,3.3076,3.3161,0,0,3.3095,3.3097,0,0,0,0,0,0,0,0,3.2774,3.2786,3.2893,3.2895,3.2897,3.2965,3.2951,3.3046,3.2976,3.2946,3.297,3.2967,3.3035,3.3043,3.3067,3.3166,3.317,3.3095,3.3099,3.3102,3.3103,0,0,0,0,0,0,0,3.2767,3.2782,3.2926,3.2895,3.2897,3.2893,3.2903,3.2969,3.3002,3.2948,3.2947,3.2959,3.3036,3.3061,3.3069,3.3171,3.3095,3.31,3.3104,3.3107,3.3341,3.3343,0,0,0,0,0,0,3.2759,3.2777,3.2923,3.2929,3.2828,3.2898,3.291,3.2946,3.3002,3.3008,3.2961,3.2958,3.3052,3.3062,3.3072,3.3172,3.3101,3.3107,3.3111,3.3338,3.3342,3.3344,0,0,0,0,0,0,3.2755,3.2773,3.2919,3.2853,3.2871,3.2904,3.2945,3.2949,3.2974,3.3012,3.3017,3.2981,3.305,3.3064,3.3138,3.3176,3.311,3.3115,3.3335,3.3339,3.3343,3.3375,0,0,0,0,0,0,3.275,3.2771,3.2805,3.2854,3.2875,3.2985,3.2947,3.2953,3.2985,3.2982,3.3032,3.3037,3.3049,3.3129,3.3144,3.3183,3.312,3.3332,3.3337,3.3342,3.3371,3.338,3.3387,0,0,0,0,0,3.2742,3.281,3.2807,3.2824,3.2918,3.2987,3.2999,3.3012,3.2988,3.3021,3.3045,3.3036,3.317,3.3137,3.3154,3.3195,3.333,3.3336,3.3341,3.3367,3.3378,3.3387,0,0,0,0,0,0,3.2765,3.2817,3.2813,3.2899,3.2939,3.2985,3.3027,3.3024,3.307,3.3065,3.3079,3.309,3.3165,3.3188,3.3151,3.3278,3.3246,3.3256,3.326,3.3271,3.3279,3.327,3.3125,0,0,0,0,0,3.278,3.2833,3.2875,3.2947,3.2967,3.2994,3.3025,3.3031,3.3072,3.3089,3.3118,3.3158,3.3208,3.3241,3.329,3.3375,3.3384,3.3411,3.3419,3.3426,3.3433,3.3476,3.3487,3.3363,3.3363,3.3363,0,0,3.2811,3.2846,3.2879,3.2952,3.2984,3.3036,3.3008,3.3066,3.3105,3.3097,3.3169,3.3192,3.3237,3.3316,3.3352,3.3337,3.3469,3.3433,3.3438,3.3442,3.3483,3.3494,3.3505,3.3367,3.3367,3.3366,0,0,3.2894,3.2928,3.2989,3.3021,3.3069,3.3086,3.3101,3.3148,3.3162,3.3235,3.3229,3.3275,3.3363,3.3394,3.3422,3.3515,3.3507,3.3531,3.3572,3.3614,3.3623,3.3632,3.3662,3.3673,3.3538,3.3538,3.3538,0,3.2926,3.3007,3.3021,3.3079,3.311,3.3107,3.3168,3.3198,3.3259,3.328,3.3263,3.3371,3.3401,3.3486,3.3508,3.3532,3.3547,3.3524,3.3621,3.363,3.3638,3.3667,3.3678,3.3541,3.354,3.354,3.354,0,3.3042,3.3098,3.3142,3.3201,3.3237,3.3297,3.3318,3.3353,3.3357,3.3375,3.3447,3.3483,3.3538,3.3559,3.3563,3.3644,3.3632,3.3618,3.3586,3.3652,3.3679,3.369,3.3544,3.3543,3.3542,3.3542,0,0,3.3141,3.3207,3.3222,3.3247,3.3299,3.3342,3.34,3.3454,3.3482,3.3525,3.3572,3.3646,3.3632,3.3663,3.3671,3.3708,3.3775,3.3689,3.369,3.37,3.3862,3.3869,3.3882,3.3771,3.3774,3.3775,3.3857,0,3.3227,3.333,3.3344,3.3434,3.3484,3.3481,3.3531,3.3568,3.3587,3.363,3.3651,3.3701,3.3682,3.37,3.3737,3.3759,3.3807,3.3754,3.3812,3.3814,3.3798,3.3897,3.3906,3.3981,3.3868,3.387,3.3871,0,3.334,3.3385,3.348,3.3523,3.3544,3.359,3.3638,3.3682,3.3722,3.3732,3.3766,3.3769,3.3827,3.3794,3.3873,3.3836,3.3861,3.3876,3.3879,3.3882,3.3844,3.3899,3.4005,3.4015,3.3888,3.3887,3.3886,0,3.3398,3.3482,3.3549,3.3572,3.3625,3.3655,3.3679,3.3717,3.3747,3.379,3.381,3.3859,3.3885,3.3922,3.3936,3.3912,3.4013,3.3982,3.4021,3.402,3.404,3.4038,3.4148,3.4062,3.4062,3.4061,3.4061,0,3.349,3.3547,3.3576,3.3617,3.368,3.3695,3.3758,3.3779,3.3813,3.3857,3.3858,3.3899,3.3918,3.3961,3.3973,3.4034,3.4047,3.4055,3.4057,3.4053,3.4051,3.4067,3.4061,3.4064,3.4064,3.4063,3.4063,0,3.3564,3.3586,3.3658,3.3702,3.3714,3.3759,3.3795,3.3834,3.3852,3.3907,3.3921,3.3949,3.4,3.4019,3.4081,3.4089,3.4158,3.4158,3.4144,3.4144,3.418,3.4175,3.4301,3.4317,3.4224,3.4225,3.4225,0,3.362,3.3664,3.3712,3.3741,3.3765,3.3813,3.3844,3.386,3.3892,3.394,3.3973,3.4023,3.4064,3.4145,3.417,3.4217,3.4215,3.4256,3.4222,3.4215,3.4211,3.4207,3.421,3.4261,3.4262,3.4263,3.4264,0,3.3715,3.3723,3.3768,3.3816,3.3853,3.3891,3.3929,3.3953,3.3974,3.401,3.4062,3.4093,3.4156,3.4205,3.4253,3.4275,3.4272,3.4275,3.4285,3.428,3.4269,3.4272,3.4158,3.4271,3.427,3.427,3.4269,3.4269,3.3779,3.3817,3.3856,3.3905,3.3935,3.3969,3.4007,3.403,3.4073,3.4125,3.4133,3.4187,3.4224,3.4288,3.4312,3.4354,3.4343,3.4359,3.4363,3.4366,3.4366,3.4265,3.4363,3.4363,3.4363,3.4363,3.4363,0,3.3871,3.3896,3.3941,3.3993,3.4031,3.4027,3.4067,3.4099,3.4147,3.4182,3.4222,3.428,3.4328,3.4356,3.4403,3.4431,3.443,3.4442,3.4439,3.4443,3.4376,3.436,3.4442,3.4441,3.4441,3.4441,3.4441,3.4441,3.3923,3.3986,3.3998,3.4075,3.4099,3.4153,3.4176,3.4207,3.4235,3.4299,3.4339,3.4357,3.4389,3.4438,3.448,3.4487,3.4503,3.4515,3.4521,3.4457,3.4448,3.444,3.4425,3.4519,3.452,3.4584,3.4585,3.4585]},{"header":{"parameterUnit":"m.s-1","parameterCategory":1,"la1":30.2991,"la2":30.254,"lo1":-89.0895,"lo2":-89.0444,"dy":0.0017,"dx":0.0017,"nx":28,"ny":28,"refTime":"2024-03-19T21:00:00:Z","depth":0,"parameterNumber":3,"parameterNumberName":"V-component_of_WINDS"},"data":[0,0,0,0,0,0,0,0,0,0,0,0,0,0,0,0,0,0,0,0,0,0,0,0,0,0,0,0,0,0,0,0,0,0,0,0,0,0,0,0,0,0,0,0,0,0,0,0,0,0,0,0,0,0,0,0,0,0,1.0381,1.0381,0,1.0395,1.0395,1.0396,1.0398,1.0397,1.0397,1.0397,1.0411,1.0412,1.0412,0,0,0,0,0,0,0,0,0,0,0,0,0,1.0353,1.0353,1.0381,1.0381,1.0381,1.0395,1.0395,1.0396,1.0398,1.0397,1.0397,1.0397,1.0411,1.0412,1.0412,0,0,0,0,0,0,0,0,0,0,0,0,0,1.0366,1.0353,1.0381,1.0384,1.0384,1.0395,1.0395,1.0396,1.0398,1.0397,1.0397,1.0397,1.0411,1.0412,1.0412,1.0421,0,0,1.0415,1.0415,0,0,0,0,0,0,0,0,1.0365,1.0367,1.0383,1.0384,1.0384,1.0394,1.0391,1.0404,1.0398,1.0393,1.0397,1.0397,1.0406,1.0407,1.041,1.0422,1.0422,1.0415,1.0415,1.0416,1.0416,0,0,0,0,0,0,0,1.0364,1.0366,1.0386,1.0383,1.0384,1.0384,1.0385,1.0393,1.04,1.0393,1.0393,1.0395,1.0406,1.0409,1.041,1.0423,1.0415,1.0415,1.0416,1.0416,1.044,1.044,0,0,0,0,0,0,1.0363,1.0365,1.0386,1.0387,1.0374,1.0384,1.0386,1.0391,1.04,1.0401,1.0395,1.0395,1.0408,1.041,1.0411,1.0421,1.0416,1.0416,1.0417,1.044,1.044,1.044,0,0,0,0,0,0,1.0362,1.0365,1.0385,1.0376,1.0379,1.0385,1.0391,1.0392,1.0395,1.0402,1.0403,1.0397,1.0408,1.041,1.0418,1.0421,1.0417,1.0417,1.0439,1.044,1.044,1.044,0,0,0,0,0,0,1.0361,1.0364,1.0368,1.0376,1.0379,1.0393,1.0391,1.0392,1.0396,1.0396,1.0404,1.0405,1.0408,1.0417,1.0419,1.0422,1.0418,1.0439,1.044,1.044,1.044,1.0441,1.0441,0,0,0,0,0,1.036,1.0368,1.0369,1.0371,1.0384,1.0393,1.0395,1.0398,1.0397,1.04,1.0404,1.0405,1.042,1.0418,1.042,1.0423,1.0439,1.0439,1.044,1.044,1.0441,1.0441,0,0,0,0,0,0,1.0361,1.0369,1.037,1.0381,1.0386,1.0394,1.0398,1.0399,1.0405,1.0405,1.0409,1.041,1.0418,1.0422,1.0419,1.0431,1.0429,1.043,1.0429,1.0429,1.043,1.0429,1.0419,0,0,0,0,0,1.0362,1.0369,1.0376,1.0385,1.0387,1.0392,1.0396,1.0398,1.0404,1.0406,1.0411,1.0416,1.0422,1.0426,1.0432,1.044,1.0441,1.0444,1.0444,1.0444,1.0445,1.0449,1.0449,1.0441,1.0441,1.0441,0,0,1.0365,1.037,1.0375,1.0385,1.0389,1.0395,1.0394,1.0401,1.0406,1.0407,1.0415,1.0419,1.0424,1.0433,1.0436,1.0436,1.0447,1.0445,1.0445,1.0446,1.0449,1.045,1.045,1.0442,1.0442,1.0442,0,0,1.0373,1.0379,1.0386,1.039,1.0397,1.04,1.0401,1.0408,1.041,1.0418,1.0419,1.0424,1.0434,1.0438,1.0441,1.0449,1.0449,1.045,1.0453,1.0456,1.0457,1.0457,1.0459,1.046,1.0451,1.0451,1.0451,0,1.0376,1.0386,1.0389,1.0396,1.04,1.0401,1.0408,1.0411,1.042,1.0422,1.0421,1.0433,1.0437,1.0445,1.0447,1.045,1.0451,1.045,1.0457,1.0457,1.0458,1.046,1.046,1.0451,1.0451,1.0451,1.0451,0,1.0389,1.0395,1.04,1.0408,1.0412,1.0418,1.0422,1.0425,1.0426,1.0429,1.0436,1.0441,1.0447,1.0449,1.0451,1.0457,1.0456,1.0456,1.0454,1.0459,1.046,1.0461,1.0451,1.0451,1.0451,1.0451,0,0,1.0399,1.0407,1.0409,1.0411,1.0418,1.0423,1.0428,1.0434,1.0437,1.0442,1.0446,1.0454,1.0453,1.0457,1.0458,1.0461,1.0466,1.046,1.046,1.0461,1.0472,1.0472,1.0473,1.0466,1.0466,1.0466,1.0471,0,1.0408,1.0419,1.0421,1.043,1.0435,1.0436,1.044,1.0444,1.0447,1.0451,1.0453,1.0458,1.0457,1.0459,1.0462,1.0465,1.0468,1.0464,1.0469,1.0469,1.0468,1.0474,1.0475,1.048,1.0472,1.0472,1.0472,0,1.042,1.0425,1.0434,1.0438,1.0441,1.0445,1.045,1.0454,1.0458,1.0459,1.0462,1.0463,1.0468,1.0466,1.0472,1.0469,1.0471,1.0473,1.0473,1.0474,1.0471,1.0475,1.0481,1.0482,1.0473,1.0473,1.0473,0,1.0426,1.0434,1.0441,1.0443,1.0449,1.0451,1.0454,1.0457,1.046,1.0464,1.0465,1.047,1.0472,1.0475,1.0476,1.0475,1.0482,1.048,1.0483,1.0483,1.0485,1.0485,1.0492,1.0486,1.0486,1.0486,1.0486,0,1.0435,1.0441,1.0443,1.0447,1.0453,1.0455,1.046,1.0462,1.0465,1.0469,1.0469,1.0473,1.0474,1.0478,1.0479,1.0483,1.0484,1.0485,1.0485,1.0485,1.0485,1.0487,1.0486,1.0486,1.0486,1.0486,1.0486,0,1.0443,1.0445,1.0452,1.0456,1.0457,1.0461,1.0464,1.0467,1.0468,1.0473,1.0474,1.0476,1.048,1.0482,1.0487,1.0487,1.0492,1.0492,1.0491,1.0491,1.0493,1.0493,1.0501,1.0502,1.0496,1.0496,1.0496,0,1.0449,1.0453,1.0457,1.0459,1.0462,1.0466,1.0468,1.0469,1.0472,1.0476,1.0478,1.0482,1.0485,1.0491,1.0492,1.0496,1.0496,1.0498,1.0496,1.0495,1.0495,1.0495,1.0495,1.0499,1.0499,1.0499,1.0499,0,1.0459,1.0459,1.0463,1.0467,1.047,1.0473,1.0476,1.0477,1.0479,1.0481,1.0485,1.0487,1.0492,1.0495,1.0498,1.0499,1.0499,1.0499,1.05,1.05,1.0499,1.0499,1.0492,1.0499,1.0499,1.0499,1.0499,1.0499,1.0466,1.0469,1.0472,1.0475,1.0477,1.048,1.0483,1.0484,1.0487,1.0491,1.0491,1.0495,1.0497,1.0501,1.0502,1.0504,1.0504,1.0505,1.0505,1.0505,1.0505,1.0498,1.0505,1.0505,1.0505,1.0505,1.0505,0,1.0475,1.0476,1.048,1.0483,1.0486,1.0485,1.0488,1.049,1.0493,1.0495,1.0498,1.0501,1.0504,1.0505,1.0508,1.051,1.0509,1.051,1.051,1.051,1.0506,1.0505,1.051,1.051,1.051,1.051,1.051,1.051,1.048,1.0485,1.0486,1.0491,1.0492,1.0496,1.0497,1.0499,1.05,1.0504,1.0506,1.0507,1.0509,1.0511,1.0513,1.0513,1.0514,1.0515,1.0515,1.0511,1.0511,1.051,1.0509,1.0515,1.0515,1.0519,1.0519,1.0519]}]]